Location: Unspecified
(51.5147°N, 7.4673°E)
Time: 01:51:39
(UTC+01:00)

A-11 Canister half - Pass Details

Date: 23 February 2026
Orbit: 1512 x 1687 km, 47.2° (Epoch: 8 March)

Event Time Altitude Azimuth Distance (km) Brightness Sun altitude
Rises 02:07:31 0° 286° (WNW) 4,910 - -45.0°
Reaches altitude 10° 02:10:58 10° 279° (W) 3,901 - -44.7°
Maximum altitude 02:19:49 38° 216° (SW) 2,278 - -44.0°
Drops below altitude 10° 02:28:22 10° 153° (SSE) 3,766 - -43.2°
Sets 02:31:39 0° 145° (SE) 4,724 - -42.9°
